Weather History for KIWA - May, 2013

Change the Weather History Date:

Friday, May 10, 2013

  Actual Average Record
Temperature  
Mean Temperature 73 °F -  
Max Temperature 89 °F 90 °F 102 °F (2001)
Min Temperature 57 °F 62 °F 50 °F (2003)
Cooling Degree Days 8    
Growing Degree Days 23 (Base 50)    
Moisture  
Dew Point 32 °F    
Average Humidity 23    
Maximum Humidity 41    
Minimum Humidity 10    
Precipitation  
Precipitation 0.00 in - - ()
Sea Level Pressure  
Sea Level Pressure 29.98 in    
Wind  
Wind Speed 4 mph (East)    
Max Wind Speed 23 mph    
Max Gust Speed 33 mph    
Visibility 11 miles    
Events      
Averages and records for this station are not official NWS values.
T = Trace of Precipitation, MM = Missing Value Source: NWS Daily Summary

Daily Weather History Graph

Daily Weather History Graph

Search for Another Location

Airport or City:

Trip Planner

Search our weather history database for the weather conditions in past years. The results will help you decide how hot, cold, wet, or windy it might be!

Date:

Astronomy

May. 10, 2013 Rise Set
Actual Time 5:30 AM MST 7:16 PM MST
Civil Twilight 5:03 AM MST 7:43 PM MST
Nautical Twilight 4:30 AM MST 8:16 PM MST
Astronomical Twilight 3:56 AM MST 8:50 PM MST
Moon 5:57 AM MST (5/10) 8:07 PM MST (5/10)
Length of Visible Light 14h 40m
Length of Day
13h 46m
New Moon, 1% of the Moon is Illuminated
May 10
New Moon
May 17
First Quarter
May 24
Full
May 31
Last Quarter
Jun 8
New

Hourly Weather History & Observations

Time (MST) Temp. Dew Point Humidity Pressure Visibility Wind Dir Wind Speed Gust Speed Precip Events Conditions
12:15 AM 66.2 °F 32.0 °F 28% 29.96 in 10.0 mi Calm Calm - N/A   Clear
12:35 AM 68.0 °F 32.0 °F 26% 29.96 in 10.0 mi Calm Calm - N/A   Clear
12:55 AM 68.0 °F 32.0 °F 26% 29.95 in 10.0 mi Calm Calm - N/A   Clear
1:15 AM 62.6 °F 33.8 °F 34% 29.95 in 10.0 mi Calm Calm - N/A   Clear
1:35 AM 62.6 °F 35.6 °F 37% 29.95 in 10.0 mi Calm Calm - N/A   Clear
1:55 AM 64.4 °F 33.8 °F 32% 29.95 in 10.0 mi Calm Calm - N/A   Clear
2:15 AM 64.4 °F 33.8 °F 32% 29.95 in 10.0 mi Calm Calm - N/A   Clear
2:35 AM 68.0 °F 33.8 °F 28% 29.94 in 10.0 mi Calm Calm - N/A   Clear
2:55 AM 64.4 °F 33.8 °F 32% 29.94 in 10.0 mi SW 5.8 mph - N/A   Clear
3:15 AM 62.6 °F 33.8 °F 34% 29.94 in 10.0 mi Calm Calm - N/A   Clear
3:35 AM 60.8 °F 32.0 °F 34% 29.94 in 10.0 mi Calm Calm - N/A   Clear
3:55 AM 60.8 °F 32.0 °F 34% 29.95 in 10.0 mi ESE 5.8 mph - N/A   Clear
4:15 AM 60.8 °F 32.0 °F 34% 29.95 in 10.0 mi ESE 3.5 mph - N/A   Clear
4:35 AM 60.8 °F 32.0 °F 34% 29.95 in 10.0 mi ESE 5.8 mph - N/A   Clear
4:47 AM 59.0 °F 30.2 °F 34% 29.96 in 20.0 mi ESE 4.6 mph - N/A   Partly Cloudy
4:55 AM 57.2 °F 33.8 °F 41% 29.95 in 10.0 mi SSE 4.6 mph - N/A   Clear
5:15 AM 57.2 °F 33.8 °F 41% 29.96 in 10.0 mi East 3.5 mph - N/A   Clear
5:47 AM 59.0 °F 30.2 °F 34% 29.97 in 20.0 mi East 5.8 mph - N/A   Partly Cloudy
6:47 AM 62.6 °F 37.4 °F 39% 29.99 in 35.0 mi SSE 6.9 mph - N/A   Partly Cloudy
7:47 AM 68.0 °F 37.4 °F 33% 30.00 in 35.0 mi ESE 5.8 mph - N/A   Partly Cloudy
8:47 AM 73.4 °F 39.2 °F 29% 30.01 in 35.0 mi SE 5.8 mph - N/A   Partly Cloudy
9:50 AM 78.8 °F 39.2 °F 24% 30.02 in 35.0 mi Variable 4.6 mph - N/A   Partly Cloudy
11:47 AM 82.4 °F 33.8 °F 17% 30.00 in 35.0 mi Calm Calm - N/A   Partly Cloudy
12:47 PM 84.2 °F 32.0 °F 15% 29.98 in 35.0 mi NW 5.8 mph - N/A   Partly Cloudy
1:47 PM 86.0 °F 28.4 °F 12% 29.97 in 35.0 mi West 4.6 mph - N/A   Scattered Clouds
2:50 PM 87.8 °F 24.8 °F 10% 29.94 in 20.0 mi West 3.5 mph - N/A   Scattered Clouds
3:47 PM 87.8 °F 26.6 °F 11% 29.92 in 35.0 mi WSW 6.9 mph - N/A   Scattered Clouds
4:47 PM 87.8 °F 24.8 °F 10% 29.91 in 35.0 mi Calm Calm - N/A   Scattered Clouds
5:50 PM 89.6 °F 26.6 °F 10% 29.92 in 20.0 mi SW 6.9 mph - N/A   Scattered Clouds
6:51 PM 87.8 °F 24.8 °F 10% 29.95 in 10.0 mi North 4.6 mph - N/A   Mostly Cloudy
6:59 PM 86.0 °F 28.4 °F 12% 29.95 in 6.0 mi ENE 20.7 mph 32.2 mph N/A   Widespread Dust
7:31 PM 82.4 °F 32.0 °F 16% 29.99 in 6.0 mi South 23.0 mph 33.4 mph N/A   Widespread Dust
7:47 PM 84.2 °F 26.6 °F 12% 29.95 in 10.0 mi East 8.1 mph - N/A   Mostly Cloudy
7:55 PM 84.2 °F 28.4 °F 13% 29.96 in 10.0 mi Calm Calm - N/A   Scattered Clouds
8:15 PM 82.4 °F 28.4 °F 14% 29.97 in 10.0 mi NE 5.8 mph - N/A   Clear
8:35 PM 80.6 °F 28.4 °F 15% 29.98 in 10.0 mi NNE 5.8 mph - N/A   Clear
8:54 PM 80.6 °F 28.4 °F 15% 29.99 in 10.0 mi Variable 4.6 mph - N/A   Mostly Cloudy
8:55 PM 80.6 °F 28.4 °F 15% 29.99 in 10.0 mi North 6.9 mph - N/A   Clear
9:15 PM 78.8 °F 30.2 °F 17% 30.00 in 10.0 mi NE 5.8 mph - N/A   Clear
9:35 PM 78.8 °F 30.2 °F 17% 30.02 in 10.0 mi NNE 6.9 mph - N/A   Clear
9:52 PM 82.4 °F 30.2 °F 15% 30.02 in 10.0 mi NNE 11.5 mph - N/A   Scattered Clouds
9:55 PM 82.4 °F 32.0 °F 16% 30.03 in 10.0 mi NE 18.4 mph 21.9 mph N/A   Clear
10:15 PM 80.6 °F 33.8 °F 18% 30.04 in 10.0 mi ENE 12.7 mph 23.0 mph N/A   Clear
10:35 PM 80.6 °F 33.8 °F 18% 30.04 in 10.0 mi ENE 15.0 mph 18.4 mph N/A   Clear
10:47 PM 80.6 °F 35.6 °F 20% 30.04 in 10.0 mi NE 17.3 mph 23.0 mph N/A   Scattered Clouds
10:55 PM 80.6 °F 33.8 °F 18% 30.04 in 10.0 mi East 11.5 mph - N/A   Clear
11:15 PM 78.8 °F 33.8 °F 20% 30.04 in 10.0 mi East 6.9 mph - N/A   Clear
11:35 PM 78.8 °F 33.8 °F 20% 30.03 in 10.0 mi East 9.2 mph - N/A   Clear
11:55 PM 78.8 °F 33.8 °F 20% 30.03 in 10.0 mi ENE 5.8 mph - N/A   Clear